Showing default

COSMOS 88, 1586

Orbit data source: Space-Track

COSMOS 88, 1586 is a payload satellite owned by OKB-10 (CIS) in LEO that was launched on Sat, 18 Sep 1965 UTC via a KOSMOS 65S3 launch vehicle from the Tyuratam Missile And Space Complex (TTMTR). Payload-class satellites include a variety of spacecraft equipped with specific instruments for various scientific and technological missions. These include communications satellites like Starlink; space stations such as the ISS; scientific satellites like the Hubble; Earth observation satellites from companies like Planet Labs, Umbra, and HawkEye 360; GPS; miniature CubeSats for education and research; and military/defense satellites.

Loading next visibility...
Identifier
1586, 1965-073C
Orbit
LEO
Country
Flag of CISCIS
Related business
Manufacturer
OKB-10
Mission
Spacecraft
Bus & Motor
STRELA-1 11F610, Unknown motor
Mass
50 kg wet, 50 kg dry
Launch date (UTC)
1965-09-18 (60 years ago)
Launch vehicle
KOSMOS 65S3
Launch site
Tyuratam Missile And Space Complex (TTMTR)
Object type
Payload
Rocket body
Debris
Shape & HBR
Unknown
Radar Cross Section
Medium (>0.1 m² and <1 m²)

Expand to show TLE details & history
Last TLE update: 7 hours ago

TLE from 7 hours ago
0 COSMOS 88
1 01586U 65073C   25291.30491383 -.00000070  00000-0  15610-3 0  9995
2 01586  56.0611 307.6722 0186974 205.3250 261.3928 12.43341832728414
Epoch: 2025-10-18T07:19Z
TLE epoch observation values (Epoch: 2025-10-18T07:19:04.554Z)
Latitude
53.52845°
Longitude
-74.08721°
Altitude
1,524.214 km
Speed
7.098 km/s
True Right ascension
04h 10m 52s
True Declination
53° 22' 48"
Sunlit
Object was in partial shadow at epoch
Visualization orbit readout
Latitude
Unknown
Longitude
Unknown
Altitude
Unknown
Speed
Unknown
Apparent Right ascension
Unknown
Apparent Declination
Unknown
Sunlit
N/A
Visualization observer readout
Local Sidereal Time
08:38:34
Azimuth
Unknown
Elevation
Unknown
Doppler factor
Unknown
Orbital elements
Apogee altitude
1,639.448 km
Perigee altitude
1,345.135 km
Semi-major axis
7,870.429 km
Eccentricity
0.0187
Inclination
56.0611°
RAAN
307.6722°
Arg. of periapsis
205.325°
True anomaly
259.28223°
Mean anomaly
261.3928°
Eccentric anomaly
260.33672°
Mean motion
3.10846 °/min
Orbital period
115.81 mins
BSTAR
0.0001561
Loading maneuver chart data...
Computing Atmospheric mass density...
Loading historical data...
Loading historical data...
Loading historical data...
Loading historical data...
Loading historical data...
Loading historical data...
Loading historical data...

Documentation

Showing up to 5 results
|